Flag for Canada Weather past 2 weeks in Kelowna, British Columbia, Canada

Now
66 °F

Mostly cloudy.


Feels Like: 66 °F
Forecast: 60 / 76 °F
Wind: No wind

Location: Kelowna Airport

Current Time: Aug 28, 2015 at 11:11:42 PM

Latest Report: Aug 28, 2015 at 10:00 PM


Visibility: 9 mi

Pressure: 29.77 "Hg

Humidity: 64%

Dew point: 54 °F

Location of KelownaLocation

Historic Weather in Kelowna — Graph

°F

Kelowna temperature yesterday

Maximum temperature yesterday: 86 °F (at 1:00 PM)
Minimum temperature yesterday: 50 °F (at 5:00 AM)
Average temperature yesterday: 70 °F

Past Weeks' High & Low Weather Summary

 TemperatureHumidityPressure
High91 °F (Aug 19, 4:00 PM)94% (Aug 16, 5:00 AM)30.24 "Hg (Aug 16, 5:00 AM)
Low41 °F (Aug 22, 5:00 AM)13% (Aug 27, 5:00 PM)29.59 "Hg (Aug 20, 5:00 PM)
Average67 °F49%29.94 "Hg
* Reported Aug 13 10:00 PM — Aug 28 10:00 PM, Kelowna, Weather by CustomWeather, © 2015

Note: Actual official high and low records may vary slightly from our data, if they occured in-between our weather recording intervals... More about our weather records

Advertising

Kelowna weather history for previous 24 hours

 ConditionsComfort  
Time TempWeatherWind HumidityBarometerVisibility
10:00 PM
Fri, Aug 28
66 °FMostly cloudy.No wind64%29.77 "Hg9 mi
9:00 PM68 °FMostly cloudy.2 mph64%29.77 "Hg5 mi
8:04 PM68 °FOvercast.No wind64%29.78 "Hg5 mi
7:00 PM73 °FOvercast.3 mph50%29.78 "Hg5 mi
6:00 PM75 °FMostly cloudy.3 mph44%29.78 "Hg5 mi
5:00 PM75 °FPartly sunny.2 mph39%29.79 "Hg5 mi
4:00 PM75 °FHaze.5 mph39%29.79 "Hg5 mi
3:00 PM72 °FScattered clouds.5 mph57%29.83 "Hg6 mi
2:00 PM72 °FBroken clouds.No wind50%29.83 "Hg6 mi
1:00 PM66 °FLight rain. Mostly cloudy.3 mph64%29.85 "Hg9 mi
12:00 PM68 °FLight rain. More clouds than sun.3 mph53%29.86 "Hg9 mi
11:54 AM68 °FLight rain. Partly sunny.6 mph53%29.86 "Hg9 mi
11:00 AM68 °FScattered clouds.3 mph56%29.87 "Hg9 mi
10:00 AM66 °FLight rain. Scattered clouds.5 mph60%29.87 "Hg9 mi
9:57 AM66 °FLight rain. Passing clouds.5 mph60%29.87 "Hg9 mi
9:00 AM64 °FLight rain. Partly sunny.3 mph68%29.87 "Hg9 mi
8:00 AM63 °FPartly sunny.5 mph64%29.86 "Hg9 mi
7:00 AM61 °FMostly cloudy.3 mph63%29.88 "Hg9 mi
6:00 AM61 °FOvercast.No wind59%29.86 "Hg9 mi
5:00 AM63 °FMostly cloudy.No wind52%29.87 "Hg9 mi
4:00 AM61 °FPartly cloudy.5 mph55%29.87 "Hg9 mi
3:00 AM59 °FPassing clouds.No wind59%29.90 "Hg9 mi
2:47 AM59 °FOvercast.No wind59%29.91 "Hg7 mi
2:00 AM57 °FPassing clouds.No wind59%29.92 "Hg9 mi
1:00 AM57 °FClear.2 mph59%29.91 "Hg9 mi
12:00 AM61 °FClear.6 mph52%29.91 "Hg9 mi
11:00 PM
Thu, Aug 27
66 °FPartly cloudy.No wind40%29.91 "Hg9 mi
Weather by CustomWeather, © 2015

See weather overviewHow to use our weather pages